Tracking 19242 objects as of 15-Aug-2018
HD Live streaming from Space Station
objects crossing your sky now

FENGYUN 1C DEB

Track FENGYUN 1C DEB now!
10-day predictions


NORAD ID: 31642
Int'l Code: 1999-025CAY
Perigee: 711.3 km
Apogee: 894.3 km
Inclination: 98.6 °
Period: 100.8 minutes
Semi major axis: 7173 km
RCS: 0.0088 m2 (small)
Launch date: May 10, 1999
Source: People's Republic of China (PRC)
Launch site: Taiyaun Space Center, China (TSC)

Note: This is SATELLITE DEBRIS
aabbcc
Your satellite tracking list
Your tracking list is empty




NASA's NSSDC Master Catalog

Two Line Element Set (TLE):
1 31642U 99025CAY 18227.04435882  .00000131  00000-0  63982-4 0  9992
2 31642  98.6355 312.2602 0127545 208.8562 150.5526 14.28826196588322
Source of the keplerian elements: AFSPC